星链-11255 (STARLINK-11255)

导读

STARLINK-11255是美国太空探索技术公司(SpaceX)星链卫星互联网星座的一员,于2024年8月28日发射升空。星链计划旨在构建全球卫星互联网覆盖网络,STARLINK-11255入轨后,将和其他星链卫星协同工作,为全球各地用户提供低延迟、高速率的宽带互联网接入服务。

基本信息
目录编号:
60730
目录名称:
STARLINK-11255
国际标识:
2024-152L
轨道中心:
EARTH
卫星名称:
星链-11255 (STARLINK-11255)
卫星全名:
星链-11255 (STARLINK-11255)
卫星状态:
在轨 (已飞行655 天)
发射日期:
2024-08-28 UTC
国别 :
美国 (US)
星等 :
--
轨道信息
数据来源 国际轨道数据
星历时间: 2026-06-14T03:11:33+0800
16小时前
查看轨道信息
半长轴: 6737.893km
偏心率: 0.0001102
轨道倾角: 53.160°
近地点辐角 80.203°
升交点赤经 2.220°
平近点角 279.911°
近地点: 359.013km
远地点: 360.499km
周期: 91.737分钟
每日圈数: 15.697001
详细信息
卫星平台:
Starlink v2.0 mini
运营商:
太空探索技术公司
运营商所在国:
美国
制造商(研发单位):
太空探索技术公司
制造商所在国:
美国
使用方式:
暂无
卫星简介
星链(Starlink)计划是由太空探索技术公司(SpaceX)提出的一个巨型低轨卫星互联网星座项目,计划在2019年至2024年间在太空搭建由约1.2万颗卫星组成的“星链”网络,其中1584颗将部署在地球上空550千米处的近地轨道,并从2020年开始工作。该卫星仍在工作。
2D轨道图
3D轨道图
轨道高度分析图
轨道倾角分析图
轨道综合分析图
查看轨道综合分析图